#timestamp,LO_Frequency,Hit,StdDev 
1634626815.2,286046997.7,N
1634626835.0,286046999.6,N
1634626835.9,286046999.6,N
1634626855.8,286046997.5,N
1634626875.6,286046996.6,N
1634626895.5,286046998.7,N
1634626915.3,286046999.6,N
1634626935.1,286046999.0,N
1634626955.9,286047001.2,N
1634626975.7,286047000.8,N
1634626995.5,286046999.4,N
1634627015.4,286046999.5,N
1634627035.2,286046994.9,N
1634627055.1,286046995.1,N
1634627056.0,286046995.1,N
1634627075.8,286046997.2,N
1634627095.6,286046995.0,N
1634627115.5,286046995.8,N
1634627135.3,286046995.0,N
1634627155.2,286046997.6,N
1634627175.9,286046997.1,N
1634627195.7,286046998.7,N
1634627215.6,286046999.2,N
1634627235.4,286046999.5,N
1634627255.2,286046997.0,N
1634627275.1,286046996.7,N
1634627276.0,286046996.7,N
1634627295.8,286046997.5,N
1634627315.7,286046996.9,N
1634627335.5,286046999.2,N
1634627355.3,286046996.6,N
1634627375.2,286046999.6,N
1634627395.9,286046998.2,N
1634627415.7,286047000.8,N
1634627435.6,286047000.7,N
1634627455.4,286046998.2,N
1634627475.3,286047000.9,N
1634627495.1,286046998.6,N
1634627496.0,286046998.6,N
1634627515.8,286046999.7,N
1634627535.7,286047002.6,N
1634627555.5,286047004.4,N
1634627575.3,286047004.0,N
1634627595.2,286047001.0,N
1634627615.0,286046999.9,N
1634627615.9,286046999.9,N
1634627635.8,286046998.5,N
1634627655.6,286047000.3,N
1634627675.4,286046999.7,N
1634627695.3,286046998.3,N
1634627715.1,286046996.8,N
1634627735.8,286046996.9,N
1634627755.7,286046998.3,N
1634627775.5,286046997.0,N
1634627795.4,286046998.8,N
1634627815.2,286046996.7,N
1634627835.0,286046997.3,N
1634627835.9,286046997.3,N
1634627855.8,286046996.7,N
1634627875.6,286046998.2,N
1634627895.5,286047002.8,N
1634627915.3,286046998.4,N
1634627935.1,286046998.7,N
1634627955.9,286046998.6,N
1634627975.7,286047001.1,N
1634627995.5,286046999.0,N
1634628015.4,286046998.2,N
1634628035.2,286046998.1,N
1634628055.1,286046999.9,N
1634628056.0,286046999.9,N
1634628075.8,286047000.8,N
1634628095.6,286046998.5,N
1634628115.5,286047002.8,N
1634628135.3,286047001.7,N
1634628155.1,286047002.1,N
1634628175.9,286047002.8,N
1634628195.7,286047004.0,N
1634628215.6,286047003.7,N
1634628235.4,286047000.1,N
1634628255.2,286046998.8,N
1634628275.1,286046998.2,N
1634628276.0,286046998.2,N
1634628295.8,286046999.5,N
1634628315.7,286046997.4,N
1634628335.5,286046999.1,N
1634628355.3,286046998.3,N
1634628375.2,286046996.6,N
1634628395.0,286046998.8,N
1634628395.9,286046998.8,N
1634628415.7,286046998.9,N
1634628435.6,286046998.4,N
1634628455.4,286046999.6,N
1634628475.3,286046999.5,N
1634628495.1,286046997.4,N
1634628496.0,286046997.4,N
1634628515.8,286046999.5,N
1634628535.7,286046995.0,N
1634628555.5,286046999.6,N
1634628575.4,286046994.9,N
1634628595.2,286046995.6,N
1634628615.0,286046995.6,N
1634628615.9,286046995.6,N
1634628635.8,286046998.0,N
1634628655.6,286046996.0,N
1634628675.4,286046994.7,N
1634628695.3,286046993.4,N
1634628715.1,286046993.4,N
1634628735.9,286046995.6,N
1634628755.7,286046996.2,N
1634628775.5,286046995.1,N
1634628795.4,286046996.0,N
1634628815.2,286046995.3,N
1634628835.0,286046996.2,N
1634628835.9,286046996.2,N
1634628855.8,286046995.4,N
1634628875.6,286046996.1,N
1634628895.5,286046997.5,N
1634628915.3,286046995.1,N
1634628935.1,286046996.2,N
1634628955.9,286046996.2,N
1634628975.7,286046992.1,Y
1634628995.6,286047000.8,P
1634629015.4,286047000.4,N
1634629035.2,286047003.8,N
1634629055.1,286047006.3,N
1634629056.0,286047006.3,N
1634629075.8,286047008.6,N
1634629095.6,286047009.2,N
1634629115.5,286047006.5,N
1634629135.3,286047005.3,N
1634629155.2,286047003.4,N
1634629175.9,286047004.3,N
1634629195.7,286047001.5,N
1634629215.6,286047001.5,N
1634629235.4,286047004.4,N
1634629255.2,286047001.9,N
1634629275.1,286047000.1,N
1634629276.0,286047000.1,N
1634629295.8,286046999.7,N
1634629315.7,286047000.1,N
1634629335.5,286046999.8,N
1634629355.3,286047000.0,N
1634629375.2,286047000.0,N
1634629395.0,286047001.2,N
1634629395.9,286047001.2,N
1634629415.7,286046998.1,N
1634629435.6,286046996.9,N
1634629455.4,286046997.0,N
1634629475.3,286046997.3,N
1634629495.1,286046997.0,N
1634629496.0,286046997.0,N
1634629515.8,286046998.8,N
1634629535.7,286046999.1,N
1634629555.5,286046998.8,N
1634629575.4,286046997.0,N
1634629595.2,286046999.4,N
1634629615.0,286046996.9,N
1634629615.9,286046996.9,N
1634629635.8,286046997.1,N
1634629655.6,286046999.6,N
1634629675.4,286046997.5,N
1634629695.3,286046997.9,N
1634629715.1,286046996.8,N
1634629735.9,286046997.3,N
1634629755.7,286046997.5,N
1634629775.5,286046997.8,N
1634629795.4,286046996.6,N
1634629815.2,286046996.6,N
1634629835.1,286046996.5,N
1634629836.0,286046996.5,N
1634629855.8,286046999.8,N
1634629875.6,286046998.5,N
1634629895.5,286046999.5,N
1634629915.3,286046997.4,N
1634629935.1,286046997.7,N
1634629955.9,286046995.2,Y
1634629975.7,286047000.6,P
1634629995.6,286046998.7,N
1634630015.4,286046997.0,N
1634630035.2,286046997.7,N
1634630055.1,286047001.8,N
1634630056.0,286047001.8,N
1634630075.8,286047002.7,N
1634630095.6,286046999.2,N
1634630115.5,286046997.2,N
1634630135.3,286046999.6,N
1634630155.2,286046999.1,N
1634630175.9,286046995.7,N
1634630195.7,286046995.5,N
1634630215.6,286046995.2,N
1634630235.4,286046993.7,N
1634630255.2,286046994.6,N
1634630275.1,286046992.6,N
1634630276.0,286046992.6,N
1634630295.8,286046990.2,Y
1634630315.7,286046993.5,P
1634630335.5,286046994.5,N
1634630355.3,286046993.5,P
1634630375.2,286046993.5,Y
1634630395.0,286046997.4,P
1634630395.9,286046997.4,N
